This demonstration page uses our WeatherBlox Daily Observations layout. Learn more.

Left ArrowRight Arrow

41.86663, -103.66717

Hourly Observations for December 13, 2020

Temp ( °F °C ) Dew Point ( °F °C ) Humidity (%) Winds ( mph kmh ) Pressure ( in mb ) Visibility ( mi km ) Precip ( " mm )
12:53 am 00:53 Clear 11 -11.7 7 -13.9 84 84 WNW 6 9 30.28 1025 10 16 0.00 0.00
1:53 am 01:53 Clear 9 -12.8 6 -14.4 88 88 NW 3 6 30.29 1026 10 16 0.00 0.00
2:53 am 02:53 Clear 7 -13.9 3 -16.1 84 84 NW 10 17 30.32 1027 10 16 0.00 0.00
3:53 am 03:53 Clear 8 -13.3 4 -15.6 83 83 NW 9 15 30.34 1027 10 16 0.00 0.00
4:53 am 04:53 Clear 6 -14.4 2 -16.7 83 83 NW 8 13 30.36 1028 10 16 0.00 0.00
5:53 am 05:53 Clear 7 -13.9 2 -16.7 80 80 NW 8 13 30.38 1029 10 16 0.00 0.00
6:53 am 06:53 Clear 5 -15 0 -17.8 79 79 NW 6 9 30.40 1030 10 16 0.00 0.00
7:53 am 07:53 Sunny 6 -14.4 1 -17.2 79 79 NW 7 11 30.41 1030 10 16 0.00 0.00
8:53 am 08:53 Sunny 10 -12.2 5 -15 80 80 NW 6 9 30.42 1030 10 16 0.00 0.00
9:53 am 09:53 Sunny 14 -10 7 -13.9 73 73 NW 7 11 30.40 1030 10 16 0.00 0.00
10:53 am 10:53 Sunny 19 -7.2 11 -11.7 71 71 NW 7 11 30.36 1028 10 16 0.00 0.00
11:53 am 11:53 Sunny 21 -6.1 10 -12.2 62 62 NNW 7 11 30.34 1027 10 16 0.00 0.00
12:53 pm 12:53 Sunny 23 -5 12 -11.1 63 63 NW 6 9 30.35 1028 10 16 0.00 0.00
1:53 pm 13:53 Sunny 24 -4.4 12 -11.1 60 60 NNW 5 7 30.32 1027 10 16 0.00 0.00
2:53 pm 14:53 Sunny 24 -4.4 14 -10 65 65 ENE 3 6 30.30 1026 10 16 0.00 0.00
3:53 pm 15:53 Sunny 20 -6.7 13 -10.6 74 74 E 3 6 30.32 1027 10 16 0.00 0.00
4:53 pm 16:53 Clear 16 -8.9 8 -13.3 71 71 E 5 7 30.33 1027 10 16 0.00 0.00
5:53 pm 17:53 Clear 15 -9.4 8 -13.3 74 74 E 8 13 30.31 1026 10 16 0.00 0.00
6:53 pm 18:53 Clear 14 -10 7 -13.9 73 73 E 6 9 30.30 1026 10 16 0.00 0.00
7:53 pm 19:53 Clear 13 -10.6 7 -13.9 77 77 E 8 13 30.29 1026 10 16 0.00 0.00
8:53 pm 20:53 Clear 11 -11.7 5 -15 77 77 E 5 7 30.27 1025 10 16 0.00 0.00
9:53 pm 21:53 Clear 15 -9.4 8 -13.3 74 74 E 7 11 30.23 1024 10 16 0.00 0.00
10:53 pm 22:53 Clear 15 -9.4 7 -13.9 70 70 E 7 11 30.21 1023 10 16 0.00 0.00
11:53 pm 23:53 Mostly Clear 19 -7.2 10 -12.2 68 68 E 10 17 30.15 1021 10 16 0.00 0.00

Powered by AerisWeather